+ View the NASA Portal
+ Center for Near-Earth Object Studies
IMPORTANT:
The SSD Announcement email list is now available. Major changes are coming in the near future, including possible hostname and/or URL changes. To be notified of such changes, subscribe to this email list.
Please visit
this page
for more details.
Don't show this message again
JPL Small-Body Database Browser
Search:
[
help
]
1411 Brauna (1937 AM)
Classification:
Main-belt Asteroid
SPK-ID:
2001411
[
Ephemeris
|
Orbit Diagram
|
Orbital Elements
|
Mission Design
|
Physical Parameters
|
Discovery Circumstances
]
[ show orbit diagram ]
Orbital Elements at Epoch 2458600.5 (2019-Apr-27.0) TDB
Reference:
JPL 35
(heliocentric ecliptic J2000)
Element
Value
Uncertainty (1-sigma)
Units
e
.05708522488675971
4.1733e-08
a
3.004024956534103
1.4654e-08
au
q
2.832539516324915
1.2536e-07
au
i
8.038839472414971
4.0218e-06
deg
node
284.5822979505689
3.1768e-05
deg
peri
94.41921363319791
4.7517e-05
deg
M
39.8504798968858
3.5557e-05
deg
t
p
2458389.984156612573
(2018-Sep-28.48415661)
0.00018776
TDB
period
1901.751341905323
5.21
1.3915e-05
3.81e-08
d
yr
n
.1892991959923235
1.3851e-09
deg/d
Q
3.175510396743291
1.5491e-08
au
Orbit Determination Parameters
# obs. used (total)
2266
data-arc span
30274 days (82.89 yr)
first obs. used
1937-01-08
last obs. used
2019-11-28
planetary ephem.
DE431
SB-pert. ephem.
SB431-N16
condition code
0
norm. resid. RMS
.42208
source
ORB
producer
Otto Matic
solution date
2019-Dec-03 20:21:43
Additional Information
Earth MOID
= 1.84852 au
Jupiter MOID
= 2.16483 au
T_jup
= 3.234
[ show covariance matrix ]
[
Ephemeris
|
Orbit Diagram
|
Orbital Elements
|
Mission Design
|
Physical Parameters
|
Discovery Circumstances
]
Physical Parameter Table
Parameter
Symbol
Value
Units
Sigma
Reference
Notes
absolute magnitude
H
11.0
n/a
MPO337256
diameter
diameter
28.272
km
0.173
urn:nasa:pds:neowise_diameters_albedos::2.0[mainbelt] (http://adsabs.harvard.edu/abs/2014ApJ...791..121M)
rotation period
rot_per
4.90
h
n/a
LCDB (Rev. 2019-January); Warner et al., 2009
Published Reference List:
[Shipley, H.; Dillard, A.; Kendall, J.; Reichert, M.; et al. (2008) Minor Planet Bull. 35, 99-101.]
geometric albedo
albedo
0.096
0.008
urn:nasa:pds:neowise_diameters_albedos::2.0[mainbelt] (http://adsabs.harvard.edu/abs/2014ApJ...791..121M)
1411 Brauna (1937 AM)
Discovered 1937-Jan-08 by Reinmuth, K. at Heidelberg
Reference:
DISCOVERY.DB
Last Updated:
2003-08-29
Alternate Designations
1937 AM
= 1929 RT
[
Ephemeris
|
Orbit Diagram
|
Orbital Elements
|
Mission Design
|
Physical Parameters
|
Discovery Circumstances
]
2019-Dec-12 14:07 UT
(server date/time)
Site Manager:
Ryan S. Park
Webmaster
:
Alan B. Chamberlin